San Antonio Stinson, TX

10:40 AM CDT on March 27, 2017 (GMT -0500)
Stinson Municipal

Weather History for KSSF - September, 2014

Change the Weather History Date:

Tuesday, September 23, 2014

  Actual Average Record
Temperature  
Mean Temperature 82 °F -  
Max Temperature 91 °F 86 °F 100 °F (2000)
Min Temperature 73 °F 64 °F 51 °F (1999)
Cooling Degree Days 17    
Growing Degree Days 32 (Base 50)    
Moisture  
Dew Point 61 °F    
Average Humidity 55    
Maximum Humidity 76    
Minimum Humidity 30    
Precipitation  
Precipitation 0.00 in - - ()
Sea Level Pressure  
Sea Level Pressure 30.04 in    
Wind  
Wind Speed 7 mph (ENE)    
Max Wind Speed 12 mph    
Max Gust Speed -    
Visibility 10 miles    
Events      
Averages and records for this station are not official NWS values.
T = Trace of Precipitation, MM = Missing Value Source: NWS Daily Summary

Daily Weather History Graph

Daily Weather History Graph

Search for Another Location

Airport or City:

Trip Planner

Search our weather history database for the weather conditions in past years. The results will help you decide how hot, cold, wet, or windy it might be!

Date:

Astronomy

Sep. 23, 2014 Rise Set
Actual Time 7:22 AM CDT 7:29 PM CDT
Civil Twilight 6:59 AM CDT 7:52 PM CDT
Nautical Twilight 6:31 AM CDT 8:20 PM CDT
Astronomical Twilight 6:03 AM CDT 8:48 PM CDT
Moon 6:49 AM CDT (9/23) 7:10 PM CDT (9/23)
Length of Visible Light 12h 53m
Length of Day
12h 06m
Waning Crescent, 0% of the Moon is Illuminated
Sep 23
Waning Crescent
Sep 24
New
Oct 1
First Quarter
Oct 8
Full
Oct 15
Last Quarter

Hourly Weather History & Observations

Time (CDT) Temp. Heat Index Dew Point Humidity Pressure Visibility Wind Dir Wind Speed Gust Speed Precip Events Conditions
12:53 AM 80.1 °F 82.9 °F 69.1 °F 69% 30.04 in 10.0 mi ENE 6.9 mph - N/A   Mostly Cloudy
1:53 AM 79.0 °F - 69.1 °F 72% 30.05 in 10.0 mi ENE 5.8 mph - N/A   Overcast
2:53 AM 78.1 °F - 68.0 °F 71% 30.04 in 10.0 mi ENE 5.8 mph - N/A   Mostly Cloudy
3:53 AM 77.0 °F - 68.0 °F 74% 30.03 in 10.0 mi ENE 8.1 mph - N/A   Mostly Cloudy
4:53 AM 75.9 °F - 68.0 °F 76% 30.03 in 10.0 mi ENE 5.8 mph - N/A   Clear
5:53 AM 75.0 °F - 66.9 °F 76% 30.04 in 10.0 mi ENE 9.2 mph - N/A   Mostly Cloudy
6:15 AM 75.0 °F - 66.9 °F 76% 30.08 in 10.0 mi ENE 6.9 mph - N/A   Overcast
6:39 AM 75.0 °F - 66.9 °F 76% 30.08 in 10.0 mi ENE 6.9 mph - N/A   Overcast
6:53 AM 75.0 °F - 66.9 °F 76% 30.05 in 10.0 mi ENE 6.9 mph - N/A   Overcast
7:53 AM 73.0 °F - 64.9 °F 76% 30.06 in 10.0 mi ENE 8.1 mph - N/A   Scattered Clouds
8:53 AM 75.0 °F - 64.0 °F 69% 30.08 in 10.0 mi ENE 10.4 mph - N/A   Clear
9:53 AM 77.0 °F - 62.1 °F 60% 30.10 in 10.0 mi East 11.5 mph - N/A   Overcast
10:53 AM 81.0 °F 81.7 °F 61.0 °F 50% 30.10 in 10.0 mi NE 6.9 mph - N/A   Partly Cloudy
11:53 AM 84.0 °F 84.0 °F 60.1 °F 44% 30.09 in 10.0 mi ENE 9.2 mph - N/A   Clear
12:53 PM 86.0 °F 85.7 °F 60.1 °F 41% 30.08 in 10.0 mi Variable 3.5 mph - N/A   Clear
1:53 PM 88.0 °F 87.6 °F 60.1 °F 39% 30.05 in 10.0 mi North - - N/A   Clear
2:53 PM 90.0 °F 89.1 °F 59.0 °F 35% 30.02 in 10.0 mi Variable 3.5 mph - N/A   Clear
3:53 PM 91.9 °F 90.6 °F 57.0 °F 31% 29.99 in 10.0 mi NNE 8.1 mph - N/A   Clear
4:53 PM 91.0 °F 89.2 °F 55.9 °F 30% 29.97 in 10.0 mi ENE 11.5 mph - N/A   Clear
5:53 PM 90.0 °F 87.9 °F 55.0 °F 30% 29.97 in 10.0 mi ENE 9.2 mph - N/A   Clear
6:53 PM 84.9 °F 83.3 °F 54.0 °F 34% 29.98 in 10.0 mi East 8.1 mph - N/A   Clear
7:53 PM 82.0 °F 81.3 °F 54.0 °F 38% 29.99 in 10.0 mi East 6.9 mph - N/A   Clear
8:53 PM 80.1 °F 80.0 °F 54.0 °F 40% 30.00 in 10.0 mi East 6.9 mph - N/A   Clear
9:53 PM 79.0 °F - 54.0 °F 42% 30.02 in 10.0 mi East 9.2 mph - N/A   Clear
10:53 PM 77.0 °F - 55.0 °F 47% 30.03 in 10.0 mi East 8.1 mph - N/A   Clear
11:53 PM 75.0 °F - 55.9 °F 51% 30.04 in 10.0 mi East 6.9 mph - N/A   Clear